SCP
0 0 0 0 0 0 -0 -0 -0 0 0 0 0 0 -0 -0 0 0 0 0 0 0 0 0 0 0 0 0 0 0 0 0 0 0 0 0 0 0 0 0 0 0 0 0
0 0 0 0 0 0 0 0 -0 -0 -0 0 0 -0 0 -0 -0 0 0 0 0 0 0 0 0 0 0 0 0 0 0 0 0 0 0 0 0 0 0 0 0 0 0 0
0 0 0 0 0 0 0 0 0 0 0 0 -0 -0 -0 -0 -0 -0 0 0 0 0 0 0 0 0 0 0 0 0 0 0 0 0 0 0 0 0 0 0 0 0 0 0
0 0 0 0 0 0 0 0 0 0 0 0 0 0 0 0 -0 -0 -0 0 0 0 0 0 0 0 0 0 0 0 0 0 0 0 0 0 0 0 0 0 0 0 0 0
0 0 0 0 0 0 -0 0 -0 -0 0 0 0 0 0 0 0 0 0 0 0 0 0 0 0 0 0 0 0 0 0 0 0 0 0 0 0 0 0 0 0 0 0 0
0 0 0 0 0 0 0 0 0 -0 -0 0 0 0 0 0 0 0 0 0 0 0 0 0 0 0 0 0 0 0 0 0 0 0 0 0 0 0 0 0 0 0 0 0
0 0 0 0 0 0 0 0 0 0 0 0 0 0 0 0 0 0 0 0 0 0 0 0 0 0 -0 -0 -0 0 0 0 0 0 0 0 0 0 0 0 0 0 0 0
0 0 0 0 0 0 0 0 0 0 -0 -0 -0 -0 0 0 -0 -0 -0 0 0 0 0 0 0 0 -0 -0 -0 -0 -0 0 0 0 0 0 0 0 0 0 0 0 0 0
0 0 0 0 0 0 0 -0 -0 -0 -0 -0 -0 -0 -0 -0 -0 -0 -0 0 0 0 0 0 0 0 0 -0 -0 -0 -0 0 0 0 0 0 0 0 0 0 0 0 0 0
0 0 0 0 0 0 0 0 0 -0 -0 0 0 0 -0 -0 -0 -0 0 0 0 0 0 0 0 0 0 0 -0 -0 -0 0 0 0 0 0 0 0 0 0 0 0 0 0
0 -0 -0 -0 0 0 0 0 0 0 0 0 0 0 -0 -0 -0 -0 -0 -0 0 0 0 0 0 0 0 0 -0 -0 -0 0 0 0 0 0 0 0 0 0 0 0 0 0
0 0 0 0 0 0 0 0 0 0 0 0 0 -0 -0 -0 -0 -0 -0 -0 -0 0 0 0 0 0 0 -0 -0 0 0 0 0 0 0 0 0 0 0 0 0 0 0 0
0 0 0 0 0 0 0 0 0 -0 -0 -0 -0 -0 -0 -0 -0 -0 -0 -0 -0 0 0 0 0 0 0 -0 0 0 0 0 0 0 0 0 0 0 0 0 0 0 0 0
0 0 0 0 0 -0 0 0 0 0 0 -0 -0 -0 -0 -0 -0 -0 -0 0 0 0 0 0 0 0 0 0 0 0 0 0 0 0 0 0 0 0 0 0 0 0 0 0
0 0 0 0 0 0 0 0 0 0 -0 -0 -0 -0 -0 -0 -0 -0 0 0 0 0 0 0 0 0 0 0 0 0 0 0 0 0 0 0 0 0 0 0 0 0 0 0
0 0 0 0 0 0 0 0 0 -0 -0 -0 -0 0 0 -0 -0 0 0 0 0 0 0 0 0 0 0 0 0 0 0 0 0 0 0 0 0 0 0 0 0 0 0 0
0 0 0 0 0 0 0 0 0 0 0 -0 -0 0 0 0 0 0 0 0 0 0 0 0 0 0 0 0 0 0 0 0 0 0 0 0 0 0 0 0 0 0 0 0
0 -0 -0 -0 -0 -0 0 0 0 0 0 -0 0 0 0 0 0 0 0 -0 -0 -0 0 0 0 0 0 0 0 0 0 0 0 0 0 0 0 0 0 0 0 0 0 0
0 -0 -0 -0 -0 -0 -0 0 0 0 -0 -0 0 0 0 0 0 -0 -0 -0 0 0 0 0 0 0 0 0 0 0 0 0 0 0 0 0 0 0 0 0 0 0 0 0
0 -0 -0 -0 -0 -0 0 0 0 0 0 0 0 0 0 0 -0 -0 -0 -0 0 0 0 0 0 0 0 0 0 0 0 0 0 0 0 0 0 0 0 0 0 0 0 0
0 -0 -0 -0 -0 -0 -0 -0 0 0 0 -0 0 -0 -0 0 -0 -0 -0 -0 -0 -0 0 0 0 0 0 0 0 0 0 0 0 0 0 0 0 0 0 0 0 0 0 0
0 0 -0 -0 0 -0 -0 -0 0 0 0 -0 0 -0 -0 -0 -0 -0 -0 0 0 -0 0 0 0 0 0 0 0 0 0 0 0 0 0 0 0 0 0 0 0 0 0 0
0 0 -0 -0 -0 0 0 -0 0 0 0 0 0 0 0 -0 -0 -0 -0 0 0 -0 0 0 -0 -0 -0 0 0 0 0 0 0 0 0 0 0 0 0 0 0 0 0 0
0 0 -0 -0 -0 -0 -0 -0 -0 -0 0 0 0 0 0 -0 -0 -0 -0 0 -0 0 0 0 0 0 0 0 0 0 0 0 0 0 0 0 0 0 0 0 0 0 0 0
0 0 0 -0 -0 -0 -0 -0 -0 0 0 0 0 0 0 0 -0 0 -0 -0 -0 -0 -0 -0 -0 -0 0 0 -0 -0 -0 0 0 0 0 0 0 0 0 0 0 0 0 0
0 0 0 0 -0 -0 0 0 0 0 0 0 0 0 0 0 0 0 -0 0 0 0 0 0 0 0 0 0 0 0 0 0 0 0 0 0 0 0 0 0 0 0 0 0
0 0 0 -0 -0 0 0 0 0 0 0 0 0 0 0 0 0 0 0 0 0 0 0 0 0 0 0 0 0 0 0 0 0 0 0 0 0 0 0 0 0 0 0 0
Wind_Speed_500mb
23 30 26 27 29 24 28 25 15 30 33 45 39 35 27 40 38 29 34 46 50 49 54 56 53 47 46 41 34 29 24 29 41 47 57 59 62 69 71 70 65 61 63 67
16 28 29 33 38 40 37 35 38 46 46 50 65 54 49 22 20 33 47 51 52 49 52 60 53 54 50 45 41 33 29 27 36 46 51 57 63 66 69 67 69 65 66 63
13 18 19 20 50 38 36 33 37 38 43 46 42 36 49 40 33 36 52 57 58 51 57 55 48 52 52 52 45 41 34 33 32 41 50 58 63 64 67 74 71 66 68 66
11 11 24 23 11 17 30 38 34 41 50 51 52 58 63 53 53 50 47 52 52 53 55 55 60 57 54 51 46 43 40 38 38 38 46 57 65 70 79 78 73 70 67 69
10 17 32 38 25 21 15 35 43 43 46 50 71 51 47 52 49 51 47 42 51 58 67 64 68 63 53 52 52 48 48 45 44 50 47 55 66 75 82 79 78 72 69 68
6 10 14 8 5 11 6 34 15 30 40 45 54 27 29 45 31 36 49 60 64 61 62 68 68 64 60 57 57 55 51 48 44 52 62 61 67 74 79 80 83 76 76 73
20 18 23 16 28 9 16 17 16 13 27 40 22 27 54 40 41 53 65 64 66 60 68 67 68 68 72 70 66 56 53 49 46 53 62 67 74 75 83 84 85 84 81 76
10 16 23 15 11 22 22 24 31 51 53 58 69 67 63 67 61 65 66 64 65 69 73 63 63 70 79 78 68 60 58 53 48 52 63 68 77 83 84 88 91 89 85 78
15 11 13 24 27 42 60 66 66 77 78 76 76 71 76 88 84 71 61 64 73 64 70 69 66 65 77 80 67 60 64 51 52 52 63 69 76 87 88 90 92 92 87 81
30 29 48 66 71 65 69 73 76 72 72 69 75 76 83 84 75 74 74 72 66 66 77 79 72 72 74 75 65 60 62 53 52 55 62 68 71 85 91 94 98 94 91 83
39 43 59 70 72 70 65 66 74 77 74 72 72 77 74 82 80 74 78 75 69 71 77 83 80 81 74 71 65 59 56 55 57 60 65 70 69 82 93 92 94 98 94 86
32 55 49 59 66 68 74 78 79 76 74 74 71 74 77 81 77 74 79 78 78 80 78 85 82 81 74 74 67 53 51 58 67 68 69 70 71 76 83 89 94 78 60 57
48 77 72 85 75 73 63 66 68 72 70 66 70 69 70 72 76 81 78 85 95 88 79 79 77 71 73 65 59 45 46 66 75 74 72 73 75 83 83 60 55 55 56 60
63 49 42 52 47 62 59 57 58 60 62 63 64 67 73 73 78 70 88 85 86 84 80 76 75 70 60 50 45 47 51 69 76 75 73 74 86 85 87 88 87 80 65 59
37 27 38 45 53 51 55 58 62 60 55 58 57 62 65 68 69 68 70 63 48 44 54 57 50 44 40 42 48 48 60 68 72 74 78 84 88 89 98 100 94 81 65 55
43 39 46 45 53 55 53 54 55 55 56 64 66 54 50 55 54 53 52 33 29 30 29 26 26 31 35 46 42 45 57 65 70 73 76 84 90 100 102 97 86 77 72 66
34 47 49 47 51 53 60 59 58 59 59 48 43 46 40 37 35 33 25 15 12 14 16 18 25 30 37 39 45 56 58 62 63 69 79 84 91 104 98 89 82 78 71 65
31 36 39 42 53 56 58 55 50 47 30 32 29 28 26 22 16 8 3 4 4 11 11 19 24 33 38 40 43 51 59 66 72 78 80 87 91 88 82 78 75 73 68 63
30 37 39 42 43 42 44 45 38 18 20 23 23 24 21 16 11 14 16 19 26 31 29 23 28 32 37 42 51 56 64 69 75 84 88 84 72 70 74 72 69 66 64 62
31 37 41 41 37 35 38 32 14 8 18 21 21 22 21 20 19 21 23 32 36 38 32 29 32 37 41 44 49 60 69 74 72 70 69 71 71 69 64 61 63 65 65 63
30 37 45 42 40 35 28 19 3 5 16 22 29 26 30 29 34 43 47 51 45 39 41 42 42 43 42 44 47 51 56 61 63 64 63 62 61 60 59 60 60 60 61 57
27 32 41 40 37 35 31 20 6 13 22 27 33 37 44 52 54 56 54 55 51 50 51 50 47 43 41 38 39 43 47 50 53 54 54 56 59 61 62 61 59 58 57 56
25 25 28 32 33 33 29 22 14 18 27 32 35 41 49 50 48 49 49 41 40 37 39 39 33 29 27 28 31 36 41 44 45 46 50 54 58 59 59 56 53 52 51 50
17 16 18 21 22 29 34 32 28 29 30 30 30 27 29 32 37 37 37 36 32 31 36 34 32 29 27 33 37 41 45 49 48 48 51 52 51 52 52 51 50 45 44 46
12 14 16 14 15 18 18 21 25 27 28 24 22 20 20 23 26 34 30 28 22 28 38 36 34 33 37 38 39 41 41 43 45 46 45 46 48 49 48 45 40 40 44 44
12 12 12 14 13 9 8 9 16 20 22 22 22 22 29 31 31 29 25 26 27 31 36 34 31 30 33 36 38 37 38 41 41 42 43 43 43 43 42 40 36 38 41 41
11 11 10 14 10 5 2 2 3 9 12 13 18 24 30 31 29 26 23 23 25 26 29 28 31 29 30 33 36 36 36 38 37 37 37 37 38 36 34 33 34 42 41 42
Wind_Direction_500mb
260 272 280 281 282 264 235 234 234 269 273 281 281 294 299 303 306 318 325 322 322 325 329 330 333 338 343 340 334 321 297 264 253 243 235 234 234 227 221 219 214 214 211 209
272 274 274 280 276 261 247 241 243 251 259 264 273 287 283 275 290 305 311 308 312 312 319 321 328 329 328 333 328 318 294 267 252 246 239 234 228 224 222 214 206 210 206 209
268 305 293 275 246 252 249 246 235 248 251 275 277 272 274 288 280 282 293 300 304 302 313 316 321 322 323 322 320 314 297 275 252 243 239 233 226 220 217 210 207 206 204 204
274 283 252 258 314 261 255 265 259 253 255 261 270 276 279 281 276 279 281 290 295 297 304 309 314 310 316 316 309 307 294 279 259 239 236 233 224 218 215 210 208 205 204 203
243 234 284 292 266 240 223 271 250 246 258 262 266 278 273 265 274 275 282 294 303 297 300 302 305 307 308 307 306 298 301 285 268 250 237 230 226 221 214 209 205 203 202 201
177 254 267 289 161 189 197 271 312 263 257 268 277 280 279 285 279 297 299 297 303 296 297 299 299 297 299 300 301 302 299 295 277 257 245 234 227 223 217 210 206 198 198 201
233 244 259 253 250 259 231 260 284 288 301 295 276 265 273 284 291 300 301 291 303 289 304 296 290 291 290 292 295 303 299 288 274 255 245 235 228 222 214 208 201 196 197 195
230 239 270 240 232 219 251 283 294 306 306 303 294 292 276 285 294 301 297 288 288 288 289 299 287 282 284 284 292 297 298 282 267 254 244 232 227 219 212 206 197 195 192 189
221 233 263 266 266 275 288 284 285 285 286 287 285 283 284 290 295 297 284 281 283 277 284 292 287 281 277 274 285 290 295 274 262 247 241 231 222 218 208 202 197 192 190 187
273 250 261 271 280 281 280 280 282 282 282 282 277 278 280 284 287 288 284 282 277 276 281 287 284 282 271 274 281 286 290 268 247 237 231 225 220 216 210 201 195 193 191 187
271 275 276 275 272 276 282 287 284 282 279 277 276 276 278 279 281 280 280 281 276 266 268 277 283 279 275 273 280 278 274 253 234 226 222 215 213 212 209 205 202 198 196 191
264 271 279 280 289 289 290 287 286 288 288 280 276 276 278 279 279 279 282 282 279 270 261 269 272 272 275 268 272 265 256 236 222 215 208 205 202 200 207 201 198 203 193 185
257 268 275 281 291 293 291 294 294 294 291 285 285 281 282 281 284 284 281 285 284 267 257 262 262 264 270 265 262 248 239 224 211 208 202 197 196 198 188 178 174 179 184 168
276 280 279 283 291 300 303 305 306 296 292 293 294 294 292 287 288 280 287 284 282 274 263 252 256 262 263 258 245 225 222 221 209 204 198 194 196 190 180 165 162 163 171 175
294 286 291 297 302 303 305 309 306 301 299 299 299 297 296 292 288 292 295 294 287 278 258 255 249 248 248 241 217 212 212 207 201 197 193 190 187 178 171 166 162 159 159 163
304 302 309 307 307 307 309 311 309 305 303 308 312 302 296 302 305 300 300 298 279 256 241 234 233 233 229 212 202 204 201 197 191 186 177 175 174 170 166 160 159 161 163 160
315 316 320 313 312 311 310 313 309 310 315 315 310 315 320 315 304 304 299 275 256 215 204 198 204 206 198 195 191 188 182 180 182 174 167 166 164 162 161 161 162 163 162 164
311 308 312 308 310 313 316 319 323 322 326 324 332 340 343 340 335 344 325 311 172 140 151 176 186 186 184 185 184 175 169 164 164 164 164 159 159 160 162 161 161 159 158 159
338 332 332 329 327 320 322 324 329 339 350 356 5 14 15 23 46 82 107 115 124 132 136 150 157 160 162 165 163 158 158 158 159 156 156 157 160 158 156 154 154 155 154 153
345 347 348 343 342 336 330 338 349 28 27 33 49 54 59 65 74 86 94 101 109 116 128 127 132 136 142 148 147 149 153 152 151 151 151 150 149 148 150 153 154 154 155 157
345 350 359 357 354 353 345 343 315 76 63 60 71 78 76 81 89 95 98 100 109 113 112 112 114 120 128 135 138 141 141 141 139 139 142 144 147 150 151 150 152 156 159 161
340 352 0 6 9 11 10 19 90 121 106 83 86 97 96 96 94 91 91 95 99 95 93 94 96 99 105 110 120 130 137 139 141 144 147 150 151 149 150 152 153 156 158 160
323 346 357 12 25 32 36 43 77 121 118 111 102 104 108 106 101 98 94 91 93 95 96 96 98 102 110 118 126 134 139 137 140 143 145 147 149 151 152 153 154 156 158 161
304 331 355 13 28 44 52 60 74 90 99 104 106 114 120 114 106 100 100 99 97 100 97 102 108 113 117 120 126 131 134 133 134 137 140 144 147 151 152 154 154 155 160 160
296 319 340 355 16 37 51 60 69 78 84 91 105 114 118 124 122 116 109 98 88 97 94 87 87 109 113 120 125 129 131 133 138 141 145 147 150 152 153 155 157 160 159 161
281 297 327 351 1 13 44 54 72 69 69 74 85 107 123 126 126 121 114 107 97 99 97 95 90 100 114 116 122 128 135 140 146 150 153 154 153 154 157 160 163 164 163 163
286 282 313 335 337 4 39 103 78 79 75 76 95 115 131 133 133 128 124 118 111 108 106 103 94 96 110 128 133 138 141 144 146 147 150 152 155 155 157 163 165 163 164 164
Wind_Speed_850mb
23 30 26 27 29 24 28 25 15 30 33 45 39 35 27 40 38 29 34 46 50 49 54 56 53 47 46 41 34 29 24 29 41 47 57 59 62 69 71 70 65 61 63 67
16 28 29 33 38 40 37 35 38 46 46 50 65 54 49 22 20 33 47 51 52 49 52 60 53 54 50 45 41 33 29 27 36 46 51 57 63 66 69 67 69 65 66 63
13 18 19 20 50 38 36 33 37 38 43 46 42 36 49 40 33 36 52 57 58 51 57 55 48 52 52 52 45 41 34 33 32 41 50 58 63 64 67 74 71 66 68 66
11 11 24 23 11 17 30 38 34 41 50 51 52 58 63 53 53 50 47 52 52 53 55 55 60 57 54 51 46 43 40 38 38 38 46 57 65 70 79 78 73 70 67 69
10 17 32 38 25 21 15 35 43 43 46 50 71 51 47 52 49 51 47 42 51 58 67 64 68 63 53 52 52 48 48 45 44 50 47 55 66 75 82 79 78 72 69 68
6 10 14 8 5 11 6 34 15 30 40 45 54 27 29 45 31 36 49 60 64 61 62 68 68 64 60 57 57 55 51 48 44 52 62 61 67 74 79 80 83 76 76 73
20 18 23 16 28 9 16 17 16 13 27 40 22 27 54 40 41 53 65 64 66 60 68 67 68 68 72 70 66 56 53 49 46 53 62 67 74 75 83 84 85 84 81 76
10 16 23 15 11 22 22 24 31 51 53 58 69 67 63 67 61 65 66 64 65 69 73 63 63 70 79 78 68 60 58 53 48 52 63 68 77 83 84 88 91 89 85 78
15 11 13 24 27 42 60 66 66 77 78 76 76 71 76 88 84 71 61 64 73 64 70 69 66 65 77 80 67 60 64 51 52 52 63 69 76 87 88 90 92 92 87 81
30 29 48 66 71 65 69 73 76 72 72 69 75 76 83 84 75 74 74 72 66 66 77 79 72 72 74 75 65 60 62 53 52 55 62 68 71 85 91 94 98 94 91 83
39 43 59 70 72 70 65 66 74 77 74 72 72 77 74 82 80 74 78 75 69 71 77 83 80 81 74 71 65 59 56 55 57 60 65 70 69 82 93 92 94 98 94 86
32 55 49 59 66 68 74 78 79 76 74 74 71 74 77 81 77 74 79 78 78 80 78 85 82 81 74 74 67 53 51 58 67 68 69 70 71 76 83 89 94 78 60 57
48 77 72 85 75 73 63 66 68 72 70 66 70 69 70 72 76 81 78 85 95 88 79 79 77 71 73 65 59 45 46 66 75 74 72 73 75 83 83 60 55 55 56 60
63 49 42 52 47 62 59 57 58 60 62 63 64 67 73 73 78 70 88 85 86 84 80 76 75 70 60 50 45 47 51 69 76 75 73 74 86 85 87 88 87 80 65 59
37 27 38 45 53 51 55 58 62 60 55 58 57 62 65 68 69 68 70 63 48 44 54 57 50 44 40 42 48 48 60 68 72 74 78 84 88 89 98 100 94 81 65 55
43 39 46 45 53 55 53 54 55 55 56 64 66 54 50 55 54 53 52 33 29 30 29 26 26 31 35 46 42 45 57 65 70 73 76 84 90 100 102 97 86 77 72 66
34 47 49 47 51 53 60 59 58 59 59 48 43 46 40 37 35 33 25 15 12 14 16 18 25 30 37 39 45 56 58 62 63 69 79 84 91 104 98 89 82 78 71 65
31 36 39 42 53 56 58 55 50 47 30 32 29 28 26 22 16 8 3 4 4 11 11 19 24 33 38 40 43 51 59 66 72 78 80 87 91 88 82 78 75 73 68 63
30 37 39 42 43 42 44 45 38 18 20 23 23 24 21 16 11 14 16 19 26 31 29 23 28 32 37 42 51 56 64 69 75 84 88 84 72 70 74 72 69 66 64 62
31 37 41 41 37 35 38 32 14 8 18 21 21 22 21 20 19 21 23 32 36 38 32 29 32 37 41 44 49 60 69 74 72 70 69 71 71 69 64 61 63 65 65 63
30 37 45 42 40 35 28 19 3 5 16 22 29 26 30 29 34 43 47 51 45 39 41 42 42 43 42 44 47 51 56 61 63 64 63 62 61 60 59 60 60 60 61 57
27 32 41 40 37 35 31 20 6 13 22 27 33 37 44 52 54 56 54 55 51 50 51 50 47 43 41 38 39 43 47 50 53 54 54 56 59 61 62 61 59 58 57 56
25 25 28 32 33 33 29 22 14 18 27 32 35 41 49 50 48 49 49 41 40 37 39 39 33 29 27 28 31 36 41 44 45 46 50 54 58 59 59 56 53 52 51 50
17 16 18 21 22 29 34 32 28 29 30 30 30 27 29 32 37 37 37 36 32 31 36 34 32 29 27 33 37 41 45 49 48 48 51 52 51 52 52 51 50 45 44 46
12 14 16 14 15 18 18 21 25 27 28 24 22 20 20 23 26 34 30 28 22 28 38 36 34 33 37 38 39 41 41 43 45 46 45 46 48 49 48 45 40 40 44 44
12 12 12 14 13 9 8 9 16 20 22 22 22 22 29 31 31 29 25 26 27 31 36 34 31 30 33 36 38 37 38 41 41 42 43 43 43 43 42 40 36 38 41 41
11 11 10 14 10 5 2 2 3 9 12 13 18 24 30 31 29 26 23 23 25 26 29 28 31 29 30 33 36 36 36 38 37 37 37 37 38 36 34 33 34 42 41 42
Wind_Direction_850mb
260 272 280 281 282 264 235 234 234 269 273 281 281 294 299 303 306 318 325 322 322 325 329 330 333 338 343 340 334 321 297 264 253 243 235 234 234 227 221 219 214 214 211 209
272 274 274 280 276 261 247 241 243 251 259 264 273 287 283 275 290 305 311 308 312 312 319 321 328 329 328 333 328 318 294 267 252 246 239 234 228 224 222 214 206 210 206 209
268 305 293 275 246 252 249 246 235 248 251 275 277 272 274 288 280 282 293 300 304 302 313 316 321 322 323 322 320 314 297 275 252 243 239 233 226 220 217 210 207 206 204 204
274 283 252 258 314 261 255 265 259 253 255 261 270 276 279 281 276 279 281 290 295 297 304 309 314 310 316 316 309 307 294 279 259 239 236 233 224 218 215 210 208 205 204 203
243 234 284 292 266 240 223 271 250 246 258 262 266 278 273 265 274 275 282 294 303 297 300 302 305 307 308 307 306 298 301 285 268 250 237 230 226 221 214 209 205 203 202 201
177 254 267 289 161 189 197 271 312 263 257 268 277 280 279 285 279 297 299 297 303 296 297 299 299 297 299 300 301 302 299 295 277 257 245 234 227 223 217 210 206 198 198 201
233 244 259 253 250 259 231 260 284 288 301 295 276 265 273 284 291 300 301 291 303 289 304 296 290 291 290 292 295 303 299 288 274 255 245 235 228 222 214 208 201 196 197 195
230 239 270 240 232 219 251 283 294 306 306 303 294 292 276 285 294 301 297 288 288 288 289 299 287 282 284 284 292 297 298 282 267 254 244 232 227 219 212 206 197 195 192 189
221 233 263 266 266 275 288 284 285 285 286 287 285 283 284 290 295 297 284 281 283 277 284 292 287 281 277 274 285 290 295 274 262 247 241 231 222 218 208 202 197 192 190 187
273 250 261 271 280 281 280 280 282 282 282 282 277 278 280 284 287 288 284 282 277 276 281 287 284 282 271 274 281 286 290 268 247 237 231 225 220 216 210 201 195 193 191 187
271 275 276 275 272 276 282 287 284 282 279 277 276 276 278 279 281 280 280 281 276 266 268 277 283 279 275 273 280 278 274 253 234 226 222 215 213 212 209 205 202 198 196 191
264 271 279 280 289 289 290 287 286 288 288 280 276 276 278 279 279 279 282 282 279 270 261 269 272 272 275 268 272 265 256 236 222 215 208 205 202 200 207 201 198 203 193 185
257 268 275 281 291 293 291 294 294 294 291 285 285 281 282 281 284 284 281 285 284 267 257 262 262 264 270 265 262 248 239 224 211 208 202 197 196 198 188 178 174 179 184 168
276 280 279 283 291 300 303 305 306 296 292 293 294 294 292 287 288 280 287 284 282 274 263 252 256 262 263 258 245 225 222 221 209 204 198 194 196 190 180 165 162 163 171 175
294 286 291 297 302 303 305 309 306 301 299 299 299 297 296 292 288 292 295 294 287 278 258 255 249 248 248 241 217 212 212 207 201 197 193 190 187 178 171 166 162 159 159 163
304 302 309 307 307 307 309 311 309 305 303 308 312 302 296 302 305 300 300 298 279 256 241 234 233 233 229 212 202 204 201 197 191 186 177 175 174 170 166 160 159 161 163 160
315 316 320 313 312 311 310 313 309 310 315 315 310 315 320 315 304 304 299 275 256 215 204 198 204 206 198 195 191 188 182 180 182 174 167 166 164 162 161 161 162 163 162 164
311 308 312 308 310 313 316 319 323 322 326 324 332 340 343 340 335 344 325 311 172 140 151 176 186 186 184 185 184 175 169 164 164 164 164 159 159 160 162 161 161 159 158 159
338 332 332 329 327 320 322 324 329 339 350 356 5 14 15 23 46 82 107 115 124 132 136 150 157 160 162 165 163 158 158 158 159 156 156 157 160 158 156 154 154 155 154 153
345 347 348 343 342 336 330 338 349 28 27 33 49 54 59 65 74 86 94 101 109 116 128 127 132 136 142 148 147 149 153 152 151 151 151 150 149 148 150 153 154 154 155 157
345 350 359 357 354 353 345 343 315 76 63 60 71 78 76 81 89 95 98 100 109 113 112 112 114 120 128 135 138 141 141 141 139 139 142 144 147 150 151 150 152 156 159 161
340 352 0 6 9 11 10 19 90 121 106 83 86 97 96 96 94 91 91 95 99 95 93 94 96 99 105 110 120 130 137 139 141 144 147 150 151 149 150 152 153 156 158 160
323 346 357 12 25 32 36 43 77 121 118 111 102 104 108 106 101 98 94 91 93 95 96 96 98 102 110 118 126 134 139 137 140 143 145 147 149 151 152 153 154 156 158 161
304 331 355 13 28 44 52 60 74 90 99 104 106 114 120 114 106 100 100 99 97 100 97 102 108 113 117 120 126 131 134 133 134 137 140 144 147 151 152 154 154 155 160 160
296 319 340 355 16 37 51 60 69 78 84 91 105 114 118 124 122 116 109 98 88 97 94 87 87 109 113 120 125 129 131 133 138 141 145 147 150 152 153 155 157 160 159 161
281 297 327 351 1 13 44 54 72 69 69 74 85 107 123 126 126 121 114 107 97 99 97 95 90 100 114 116 122 128 135 140 146 150 153 154 153 154 157 160 163 164 163 163
286 282 313 335 337 4 39 103 78 79 75 76 95 115 131 133 133 128 124 118 111 108 106 103 94 96 110 128 133 138 141 144 146 147 150 152 155 155 157 163 165 163 164 164